Location: Shepherdstown, WV
(39.4326°N, 77.8042°W)
Time: 06:34:17
(UTC-04:00)

SR - Pass Details

Date: 06 August 2021
Orbit: 581 x 874 km, 66.7° (Epoch: 24 September)

Event Time Altitude Azimuth Distance (km) Brightness Sun altitude
Rises 05:36:19 0° 203° (SSW) 3,443 - -7.7°
Exits shadow 05:36:37 - 202° (SSW) 3,331 ? -7.7°
Reaches altitude 10° 05:38:50 10° 201° (SSW) 2,498 ? -7.3°
Maximum altitude 05:44:38 77° 117° (ESE) 863 ? -6.3°
Drops below altitude 10° 05:50:10 10° 32° (NNE) 2,382 ? -5.3°
Sets 05:52:31 0° 31° (NNE) 3,274 ? -4.9°
